Location: Beaurevoir
(49.9971°N, 3.3085°E)
Time: 19:36:29
(UTC+00:00)

Cosmos 1709 Rocket - Pass Details

Date: 23 May 2024
Orbit: 948 x 1001 km, 82.9° (Epoch: 14 June)

Event Time Altitude Azimuth Distance (km) Brightness Sun altitude
Exits shadow 01:49:42 16° 186° (S) 2,307 5.4 -14.0°
Maximum altitude 01:54:50 88° 97° (E) 1,003 4.1 -13.6°
Drops below altitude 10° 02:01:15 10° 10° (N) 2,782 7.5 -13.1°
Sets 02:03:48 0° 10° (N) 3,737 8.4 -12.8°
